Вернуться в каталог

ONEWEB-0047

АктивенСвязьPO
NORAD 45152·PAYLOAD·🇬🇧 United Kingdom

Запущен Feb 6, 2020 с Baikonur Cosmodrome

Loading…

Ближайшие Пролёты (ближайшие 24 часа)

TLE

СвежийSource: CelesTrak SupGP

Эпоха: Sep 14, 2026, 15:55 UTC

1 45152C 20008X   26257.66338380  .00002966  00000+0  85071-2 0  2578
2 45152  87.8913  18.4567 0001711  94.2030  16.4860 13.10368830    13

Отслеживайте ONEWEB-0047 в реальном времени с AllMySat

Download on the App Store